Hourly Data Report for November 08, 2019

OTTAWA INTL A
ONTARIO
Current Station Operator: NAVCAN

45°19'00.000" N
75°40'00.000" W
114.90 m
6106001
71628
YOW

Download Data

Hourly Data (November 2019)
Hourly Data Report for November 8, 2019
TIME Temp Definition
°C
Dew Point Definition
°C
Rel Hum Definition
%
Wind Dir Definition
10's deg

Wind Spd Definition
km/h
Visibility Definition
km
Stn Press Definition
kPa
Hmdx Definition


Wind Chill Definition


Weather Definition


00:00 -4.5 -8.6 73 30 14 16.1 100.64   -10 Snow
01:00 -4.6 -7.1 83 31 14 16.1 100.61   -10 Snow
02:00 -4.3 -6.7 83 32 18 16.1 100.63   -10 LegendNANA
03:00 -4.8 -7.0 85 31 16 24.1 100.64   -11 LegendNANA
04:00 -5.1 -8.7 76 33 21 24.1 100.66   -12 Mainly Clear
05:00 -5.3 -9.4 73 31 26 24.1 100.71   -13 LegendNANA
06:00 -5.7 -9.6 74 32 28 24.1 100.77   -14 LegendNANA
07:00 -6.2 -10.2 74 29 16 24.1 100.81   -12 Mainly Clear
08:00 -5.9 -8.8 80 30 21 24.1 100.89   -13 LegendNANA
09:00 -5.3 -9.0 76 30 23 24.1 100.93   -12 LegendNANA
10:00 -3.5 -8.4 69 33 28 24.1 100.94   -11 Mostly Cloudy
11:00 -3.1 -8.2 68 31 24 24.1 100.97   -10 LegendNANA
12:00 -2.4 -7.9 66 33 22 24.1 100.94   -9 LegendNANA
13:00 -1.7 -8.2 61 32 17 24.1 100.90   -7 Mostly Cloudy
14:00 -1.4 -7.9 62 29 25 24.1 100.91   -8 LegendNANA
15:00 -1.2 -8.0 60 30 23 24.1 100.92   -7 LegendNANA
16:00 -1.8 -9.3 57 30 18 24.1 100.94   -7 Mostly Cloudy
17:00 -3.5 -10.1 60 27 9 24.1 100.97   -7 LegendNANA
18:00 -4.4 -9.4 68 26 13 24.1 101.02   -9 LegendNANA
19:00 -4.3 -8.9 71 27 13 24.1 101.05   -9 Clear
20:00 -5.7 -9.2 76 26 5 24.1 101.05   -8 LegendNANA
21:00 -5.2 -8.6 77 24 6 24.1 101.06   -8 LegendNANA
22:00 -5.7 -8.8 79 22 8 24.1 101.06   -9 Clear
23:00 -6.7 -9.0 84 19 9 24.1 101.04   -11 LegendNANA

Notes on Data Quality.

Legend

  • E = Estimated
  • M = Missing
  • NA = Not Available*
  • [empty] = Indicates an unobserved value
Date modified: